Lid_Strength_Index
-0 -1 -1 -1 -0 -0 -1 -1 -1 -1 -1 -1 -1 -1 -1 -0 -0 -0 0 1 -1 -1 -1 -0 -1 -1 1 5 5 3 0 1 3 4 6 7 9 9 12 10 10 11 11 9 8 9 10
0 -0 -1 -1 -0 -0 -0 -0 -0 -1 -1 -1 -1 -1 -1 -0 -0 0 1 1 -0 -0 -1 0 -1 -1 4 8 2 3 4 4 4 5 7 8 9 9 10 10 11 10 10 10 9 9 9
1 1 1 -1 -1 -0 0 0 -0 -0 -1 -1 -1 -1 -1 -1 -0 -0 1 1 0 -0 -0 -0 -1 1 6 6 2 4 4 4 4 5 7 6 7 9 9 10 9 10 12 11 10 10 10
2 2 1 1 -1 -0 -0 -0 -0 -1 -1 -1 -1 -0 -1 -1 -0 -0 -0 -0 -0 -0 -1 -1 -1 3 8 3 3 4 4 5 5 5 5 6 6 7 8 9 10 12 13 14 11 10 10
3 2 2 2 1 0 0 0 -0 -1 -1 -1 -0 -1 -1 -1 -1 -0 -0 -0 -0 0 1 -1 4 6 9 1 4 4 5 5 5 6 6 5 6 9 9 12 14 13 17 15 12 10 10
3 3 3 3 2 2 1 1 1 1 0 -0 -0 0 0 0 0 0 0 -0 -1 1 2 1 5 9 7 6 4 4 5 5 6 7 7 8 9 12 12 14 17 15 16 14 15 12 11
3 3 3 3 3 3 2 2 1 1 2 2 1 0 0 0 1 0 2 3 7 9 6 9 9 9 6 5 3 5 5 6 6 8 12 10 13 15 13 12 12 13 14 15 13 11 12
3 4 3 3 4 4 3 3 2 2 2 2 2 2 1 0 1 1 2 5 7 6 10 7 8 7 5 4 7 6 5 8 9 12 10 13 15 11 11 11 12 13 14 15 13 11 13
2 5 4 4 3 4 4 3 3 3 3 3 3 3 2 1 1 2 3 3 2 3 9 8 7 8 7 5 7 7 6 8 10 11 11 13 11 10 10 12 12 13 14 15 14 13 14
1 4 5 5 4 4 4 5 3 4 4 3 3 3 3 2 2 2 4 3 2 3 12 9 9 7 6 6 9 6 6 7 10 11 11 11 10 10 12 12 12 14 12 12 13 15 17
2 2 4 5 6 4 4 4 5 5 4 5 4 4 4 2 3 4 2 1 2 4 19 9 9 5 6 9 9 8 6 8 10 10 11 12 12 12 12 12 11 13 11 12 13 15 16
2 3 3 4 5 5 5 4 5 5 5 5 5 5 4 3 2 2 1 1 3 13 19 11 8 9 10 9 9 8 8 8 8 10 11 12 10 11 11 10 10 10 11 12 13 15 20
0 1 3 3 3 5 4 4 4 5 5 5 5 5 6 4 4 2 1 4 13 18 10 12 11 9 10 11 10 10 11 11 12 14 14 12 12 11 10 12 10 12 14 19 19 20 20
-0 0 1 2 3 3 3 4 4 4 5 5 5 5 5 5 4 3 3 9 17 13 12 10 10 11 12 10 11 10 11 13 11 13 15 15 16 12 10 11 12 12 14 18 21 20 20
-0 -0 0 1 2 3 3 4 3 4 3 4 4 7 7 4 4 3 7 15 15 12 10 11 11 13 13 11 11 12 12 12 11 11 14 15 15 11 11 10 10 13 14 12 16 22 21
-1 -1 -0 0 1 2 2 3 4 3 3 3 8 8 8 4 3 4 9 13 12 9 8 10 13 12 14 13 13 13 14 11 11 10 10 12 15 12 12 11 11 12 11 15 16 22 23
-1 -1 -1 -0 0 1 2 2 3 2 2 3 7 10 8 5 4 7 13 12 10 8 7 10 11 12 12 13 13 14 13 12 10 10 10 11 12 15 13 13 13 13 14 13 13 16 19
-1 -1 -1 -1 -0 0 1 1 3 2 2 4 8 13 7 5 9 9 11 11 9 9 7 8 8 10 12 11 13 13 12 11 10 10 12 11 13 17 15 13 12 13 13 13 16 17 17
-0 -0 -0 -0 -0 -0 0 1 2 2 1 4 10 10 5 4 13 13 11 10 9 10 9 9 10 9 8 11 14 12 11 9 9 9 11 10 14 20 17 14 13 15 13 12 13 15 17
1 0 -0 -0 -0 -0 -0 0 1 1 0 3 8 13 9 7 9 12 12 12 10 9 9 9 9 9 10 11 10 12 11 9 9 8 8 8 13 15 18 15 12 15 14 12 13 17 16
1 1 1 0 0 -0 -0 -0 0 1 0 4 8 11 10 14 13 10 10 10 11 11 8 7 10 10 10 12 12 12 10 10 9 8 9 9 15 13 13 12 12 13 13 13 14 14 16
1 1 2 1 1 0 -0 -0 0 0 0 5 10 11 10 11 11 11 10 11 11 10 9 10 11 9 9 12 11 12 10 10 11 9 10 10 14 13 14 12 12 14 12 12 12 13 13
2 2 2 2 2 1 0 -0 -0 -0 1 6 5 7 9 11 11 12 12 11 10 8 8 7 8 9 11 10 9 9 8 8 9 10 11 11 13 14 17 14 14 16 14 13 12 11 11
2 2 2 2 2 2 1 1 0 -0 1 6 6 7 12 17 12 12 10 9 10 9 10 8 7 9 8 7 7 9 10 10 9 9 8 12 12 13 16 16 20 16 13 11 12 11 9
3 3 2 2 2 2 2 1 1 0 0 4 5 8 9 18 12 12 11 11 9 9 10 9 9 8 7 8 13 17 16 16 16 12 10 9 11 15 20 21 16 15 14 13 14 14 11
3 3 3 3 3 2 2 2 1 1 0 3 4 6 8 15 13 10 12 11 14 15 16 15 11 9 8 11 17 21 21 18 19 15 11 10 10 13 22 19 22 16 12 10 10 15 11
2 3 3 3 3 3 2 2 1 1 1 2 4 3 7 13 12 10 13 11 10 12 14 16 12 10 9 14 18 20 21 15 20 20 15 13 13 15 15 17 17 14 12 9 16 15 12
2 2 2 3 3 3 3 2 2 1 1 2 4 3 6 9 12 9 8 11 12 11 15 13 11 11 12 15 15 18 22 17 18 16 14 14 15 15 14 16 18 11 11 12 11 11 10
2 2 2 2 3 3 3 3 3 2 2 1 7 3 2 7 10 7 7 7 7 8 12 14 14 15 12 16 18 18 20 20 21 22 14 18 14 17 14 14 11 10 10 8 7 8 9